NOAA 16 DEB, 41215

Orbit data source: Space-Track

NOAA 16 DEB, 41215 is space debris in SSO originally from a launch on Thu, 21 Sep 2000 UTC launched from the Air Force Western Test Range (AFWTR). Debris objects in space refer to the collection of defunct objects orbiting the Earth. Examples of debris include non-operational satellites, rocket bodies, and fragments generated from explosions, collisions, or faulty payload assembly.

Loading next visibility...
Identifier
41215, 2000-055DU
Orbit
SSO
Country
Flag of USUS
Related business
Manufacturer
Unknown
Mission
Spacecraft
Bus & Motor
Unknown
Mass
Unknown
Launch date (UTC)
2000-09-21 (25 years ago)
Launch vehicle
Unknown
Launch site
Air Force Western Test Range (AFWTR)
Object type
Payload
Rocket body
Debris
Shape & HBR
Unknown shape, 0.1 m
Radar Cross Section
Small (<0.1 m²)

Expand to show TLE details & history
Last TLE update: 2 days ago

TLE from 2 days ago
0 NOAA 16 DEB
1 41215U 00055DU  26032.80832584  .00008376  00000-0  22267-2 0  9999
2 41215  98.8072 168.7733 0022524 129.0257 231.2945 14.48682228527886
Epoch: 2026-02-01T19:23Z
TLE epoch observation values (Epoch: 2026-02-01T19:23:59.352Z)
Latitude
0.00001°
Longitude
105.76335°
Altitude
742.942 km
Speed
7.478 km/s
True Right ascension
11h 15m 05s
True Declination
0° 00' 00"
Sunlit
Object was in full shadow at epoch
Visualization orbit readout
Latitude
Unknown
Longitude
Unknown
Altitude
Unknown
Speed
Unknown
Apparent Right ascension
Unknown
Apparent Declination
Unknown
Sunlit
N/A
Visualization observer readout
Local Sidereal Time
14:18:24
Azimuth
Unknown
Elevation
Unknown
Doppler factor
Unknown
Orbital elements
Apogee altitude
743.085 km
Perigee altitude
711.077 km
Semi-major axis
7,105.218 km
Eccentricity
0.00225
Inclination
98.8072°
RAAN
168.7733°
Arg. of periapsis
129.0257°
True anomaly
231.09344°
Mean anomaly
231.2945°
Eccentric anomaly
231.19393°
Mean motion
3.62391 °/min
Orbital period
99.34 mins
BSTAR
0.0022267
Loading maneuver chart data...
Computing Atmospheric mass density...
Loading historical data...
Loading historical data...
Loading historical data...
Loading historical data...
Loading historical data...
Loading historical data...
Loading historical data...

Documentation

Showing up to 5 results
|